QPF
0.00 0.00 0.00 0.00 0.00 0.00 0.00 0.00 0.00 0.00 0.00 0.00 0.00 0.00 0.00 0.00 0.00 0.00 0.00 0.00 0.00 0.00 0.00 0.00 0.00 0.00 0.00 0.00 0.00 0.01 0.00 0.00 0.00 0.00 0.00 0.00 0.00 0.00 0.00 0.00 0.00 0.00 0.00
0.00 0.00 0.00 0.00 0.00 0.00 0.00 0.00 0.00 0.00 0.00 0.00 0.00 0.00 0.00 0.00 0.00 0.00 0.00 0.00 0.00 0.00 0.00 0.00 0.00 0.00 0.00 0.00 0.00 0.00 0.01 0.01 0.01 0.00 0.00 0.00 0.00 0.00 0.00 0.00 0.00 0.00 0.00
0.00 0.00 0.00 0.00 0.00 0.00 0.00 0.00 0.00 0.00 0.00 0.00 0.00 0.00 0.00 0.00 0.00 0.00 0.00 0.00 0.00 0.00 0.00 0.00 0.00 0.00 0.00 0.00 0.00 0.00 0.00 0.01 0.01 0.01 0.02 0.01 0.01 0.00 0.00 0.00 0.00 0.00 0.00
0.00 0.00 0.00 0.00 0.00 0.00 0.00 0.00 0.00 0.00 0.00 0.00 0.00 0.00 0.00 0.00 0.00 0.00 0.00 0.00 0.00 0.00 0.00 0.00 0.00 0.00 0.00 0.00 0.00 0.00 0.00 0.00 0.00 0.00 0.01 0.01 0.01 0.01 0.01 0.01 0.02 0.01 0.01
0.00 0.00 0.00 0.00 0.00 0.00 0.00 0.00 0.00 0.00 0.00 0.00 0.00 0.00 0.00 0.00 0.00 0.00 0.00 0.00 0.00 0.00 0.00 0.00 0.00 0.00 0.00 0.00 0.00 0.00 0.00 0.00 0.00 0.00 0.00 0.00 0.00 0.00 0.01 0.01 0.02 0.02 0.02
0.00 0.00 0.00 0.00 0.00 0.00 0.00 0.00 0.00 0.00 0.00 0.00 0.00 0.00 0.00 0.00 0.00 0.00 0.00 0.00 0.00 0.00 0.00 0.00 0.00 0.00 0.00 0.00 0.00 0.00 0.00 0.00 0.00 0.00 0.00 0.00 0.00 0.00 0.00 0.00 0.01 0.02 0.02
0.00 0.00 0.00 0.00 0.00 0.00 0.00 0.00 0.00 0.00 0.00 0.00 0.00 0.00 0.00 0.00 0.00 0.00 0.00 0.00 0.00 0.00 0.00 0.00 0.00 0.00 0.00 0.00 0.00 0.00 0.00 0.00 0.00 0.00 0.00 0.00 0.00 0.00 0.00 0.00 0.00 0.01 0.02
0.00 0.00 0.00 0.00 0.00 0.00 0.00 0.00 0.00 0.00 0.00 0.00 0.01 0.01 0.01 0.00 0.00 0.00 0.00 0.00 0.00 0.00 0.00 0.00 0.00 0.00 0.00 0.00 0.00 0.00 0.00 0.00 0.00 0.00 0.00 0.00 0.00 0.00 0.00 0.00 0.00 0.00 0.00
0.00 0.00 0.00 0.00 0.00 0.00 0.00 0.00 0.00 0.00 0.00 0.00 0.00 0.02 0.02 0.02 0.01 0.00 0.00 0.00 0.00 0.00 0.00 0.00 0.00 0.00 0.00 0.00 0.00 0.00 0.00 0.00 0.00 0.00 0.00 0.00 0.00 0.00 0.01 0.01 0.01 0.01 0.00
0.00 0.00 0.00 0.00 0.00 0.00 0.00 0.00 0.00 0.00 0.00 0.00 0.00 0.00 0.02 0.02 0.02 0.01 0.00 0.00 0.00 0.00 0.00 0.00 0.00 0.00 0.00 0.00 0.00 0.00 0.00 0.00 0.02 0.02 0.00 0.00 0.01 0.01 0.01 0.02 0.02 0.02 0.02
0.00 0.00 0.00 0.00 0.00 0.00 0.00 0.00 0.00 0.00 0.00 0.00 0.00 0.00 0.00 0.00 0.00 0.00 0.00 0.00 0.00 0.00 0.00 0.00 0.00 0.00 0.00 0.00 0.00 0.00 0.01 0.02 0.03 0.04 0.02 0.03 0.05 0.05 0.04 0.03 0.03 0.03 0.02
0.00 0.00 0.00 0.00 0.00 0.00 0.00 0.00 0.00 0.00 0.00 0.00 0.00 0.00 0.00 0.00 0.00 0.01 0.00 0.00 0.00 0.00 0.00 0.00 0.00 0.00 0.00 0.00 0.00 0.00 0.00 0.01 0.01 0.02 0.08 0.15 0.16 0.12 0.11 0.09 0.08 0.06 0.05
0.00 0.00 0.00 0.00 0.00 0.00 0.00 0.00 0.00 0.00 0.00 0.00 0.00 0.00 0.00 0.00 0.00 0.00 0.00 0.00 0.00 0.00 0.00 0.00 0.00 0.00 0.01 0.01 0.01 0.02 0.02 0.01 0.01 0.01 0.05 0.14 0.22 0.22 0.17 0.14 0.13 0.11 0.10
0.00 0.00 0.00 0.00 0.00 0.00 0.00 0.00 0.00 0.00 0.00 0.00 0.00 0.00 0.00 0.00 0.00 0.00 0.00 0.02 0.01 0.00 0.00 0.00 0.00 0.00 0.00 0.00 0.00 0.01 0.00 0.00 0.00 0.00 0.00 0.02 0.07 0.12 0.16 0.19 0.21 0.19 0.16
0.00 0.00 0.00 0.00 0.00 0.00 0.00 0.00 0.00 0.00 0.00 0.00 0.00 0.00 0.00 0.00 0.00 0.00 0.00 0.03 0.03 0.01 0.00 0.00 0.00 0.00 0.00 0.00 0.00 0.00 0.00 0.00 0.00 0.00 0.00 0.00 0.00 0.01 0.03 0.06 0.11 0.14 0.17
0.00 0.00 0.00 0.00 0.00 0.00 0.00 0.00 0.00 0.00 0.00 0.00 0.00 0.00 0.00 0.00 0.00 0.00 0.01 0.00 0.00 0.00 0.00 0.00 0.00 0.00 0.00 0.00 0.00 0.00 0.00 0.00 0.00 0.00 0.00 0.00 0.00 0.00 0.01 0.01 0.06 0.11 0.15
0.00 0.00 0.00 0.00 0.00 0.00 0.00 0.00 0.00 0.00 0.00 0.00 0.00 0.00 0.00 0.00 0.00 0.00 0.00 0.00 0.00 0.00 0.01 0.00 0.00 0.00 0.00 0.00 0.00 0.00 0.00 0.00 0.00 0.00 0.00 0.00 0.00 0.02 0.02 0.02 0.02 0.03 0.09
0.00 0.00 0.00 0.00 0.00 0.00 0.00 0.00 0.00 0.00 0.00 0.00 0.00 0.00 0.00 0.00 0.00 0.00 0.00 0.00 0.00 0.00 0.01 0.01 0.00 0.00 0.00 0.00 0.00 0.00 0.00 0.00 0.00 0.00 0.00 0.00 0.01 0.01 0.03 0.03 0.02 0.01 0.01
0.00 0.00 0.00 0.00 0.00 0.00 0.00 0.00 0.00 0.00 0.00 0.00 0.00 0.00 0.00 0.00 0.00 0.00 0.00 0.00 0.00 0.00 0.01 0.01 0.00 0.00 0.00 0.00 0.00 0.00 0.00 0.00 0.00 0.00 0.00 0.00 0.00 0.00 0.00 0.01 0.01 0.01 0.00
0.00 0.00 0.00 0.00 0.00 0.00 0.00 0.00 0.00 0.00 0.00 0.00 0.00 0.00 0.00 0.00 0.00 0.00 0.00 0.00 0.00 0.01 0.01 0.01 0.01 0.01 0.00 0.00 0.00 0.00 0.00 0.00 0.00 0.00 0.00 0.00 0.00 0.00 0.00 0.00 0.00 0.00 0.00
0.00 0.00 0.00 0.00 0.00 0.00 0.00 0.00 0.00 0.00 0.00 0.00 0.00 0.00 0.00 0.00 0.00 0.00 0.00 0.00 0.01 0.01 0.02 0.01 0.01 0.01 0.00 0.00 0.00 0.00 0.00 0.00 0.00 0.00 0.00 0.00 0.00 0.00 0.00 0.00 0.00 0.00 0.00
0.00 0.00 0.00 0.00 0.00 0.00 0.00 0.00 0.00 0.00 0.00 0.00 0.00 0.00 0.00 0.00 0.00 0.00 0.00 0.00 0.01 0.02 0.02 0.02 0.01 0.01 0.00 0.00 0.00 0.00 0.02 0.03 0.03 0.00 0.00 0.00 0.00 0.00 0.00 0.00 0.00 0.00 0.00
0.00 0.00 0.00 0.00 0.00 0.00 0.00 0.00 0.00 0.00 0.00 0.00 0.00 0.00 0.00 0.00 0.00 0.00 0.00 0.01 0.02 0.02 0.02 0.01 0.01 0.01 0.02 0.02 0.04 0.11 0.11 0.06 0.02 0.00 0.00 0.00 0.00 0.00 0.00 0.00 0.00 0.00 0.00
0.00 0.00 0.00 0.00 0.00 0.00 0.00 0.00 0.00 0.00 0.00 0.00 0.00 0.00 0.00 0.00 0.00 0.00 0.01 0.02 0.00 0.00 0.00 0.01 0.01 0.02 0.05 0.08 0.11 0.08 0.02 0.01 0.00 0.00 0.01 0.03 0.02 0.01 0.00 0.00 0.01 0.00 0.00
0.00 0.00 0.00 0.00 0.00 0.00 0.00 0.00 0.00 0.00 0.00 0.00 0.00 0.00 0.01 0.00 0.00 0.03 0.03 0.00 0.00 0.00 0.00 0.00 0.00 0.01 0.01 0.00 0.00 0.02 0.03 0.04 0.04 0.01 0.00 0.01 0.00 0.00 0.00 0.00 0.00 0.00 0.00
0.00 0.00 0.00 0.00 0.00 0.00 0.00 0.00 0.00 0.00 0.00 0.00 0.00 0.00 0.00 0.00 0.02 0.05 0.00 0.00 0.00 0.00 0.00 0.00 0.00 0.00 0.00 0.00 0.00 0.01 0.06 0.13 0.08 0.04 0.00 0.02 0.01 0.01 0.01 0.00 0.00 0.00 0.00
MSLP
1014.13 1014.13 1014.13 1014.15 1014.10 1014.04 1013.94 1013.72 1013.65 1013.48 1013.32 1013.13 1012.97 1012.83 1012.61 1012.40 1012.19 1012.01 1011.62 1011.51 1011.45 1011.26 1011.06 1010.81 1010.63 1010.50 1010.39 1010.26 1010.17 1010.09 1010.09 1010.23 1010.36 1010.55 1010.82 1010.97 1011.09 1011.21 1011.30 1011.38 1011.47 1011.56 1011.66
1013.81 1013.85 1013.74 1013.64 1013.60 1013.68 1013.50 1013.41 1013.24 1013.09 1012.85 1012.70 1012.45 1012.16 1011.93 1011.61 1011.32 1011.07 1010.77 1010.40 1010.48 1010.29 1010.14 1009.96 1009.76 1009.57 1009.43 1009.29 1009.16 1009.08 1009.07 1009.07 1009.24 1009.32 1009.42 1009.58 1009.81 1010.03 1010.21 1010.38 1010.45 1010.52 1010.63
1013.55 1013.52 1013.47 1013.34 1013.25 1013.24 1013.21 1013.10 1012.85 1012.71 1012.42 1012.07 1011.82 1011.46 1011.11 1010.74 1010.40 1010.10 1009.83 1009.55 1009.23 1009.26 1009.12 1008.93 1008.76 1008.54 1008.35 1008.18 1008.04 1007.98 1007.94 1007.85 1007.77 1007.98 1008.19 1008.40 1008.58 1008.76 1008.89 1008.97 1009.12 1009.28 1009.41
1013.36 1013.32 1013.24 1012.97 1012.77 1012.85 1012.80 1012.62 1012.43 1012.09 1011.73 1011.53 1011.09 1010.64 1010.38 1009.93 1009.41 1008.94 1008.63 1008.38 1008.03 1007.74 1007.54 1007.50 1007.31 1007.05 1007.00 1006.93 1006.88 1006.80 1006.70 1006.65 1006.69 1006.62 1006.67 1006.88 1007.13 1007.35 1007.53 1007.65 1007.76 1007.92 1008.09
1012.99 1013.00 1012.91 1012.62 1012.60 1012.62 1012.44 1012.37 1012.06 1011.88 1011.26 1010.87 1010.61 1010.11 1009.63 1009.12 1008.57 1008.17 1007.78 1007.46 1007.13 1006.93 1006.53 1006.23 1006.24 1006.15 1006.01 1005.82 1005.58 1005.40 1005.29 1005.22 1005.22 1005.22 1005.24 1005.28 1005.39 1005.63 1005.87 1006.05 1006.23 1006.44 1006.64
1012.87 1012.88 1012.82 1012.77 1012.58 1012.42 1012.24 1012.13 1011.91 1011.52 1011.19 1010.63 1010.15 1009.63 1009.14 1008.56 1008.05 1007.55 1007.11 1006.73 1006.34 1006.08 1005.88 1005.70 1005.40 1005.15 1005.17 1005.08 1004.81 1004.51 1004.24 1004.09 1004.03 1004.02 1004.07 1004.10 1004.16 1004.22 1004.24 1004.40 1004.60 1004.83 1005.00
1013.10 1013.09 1013.10 1012.94 1012.75 1012.59 1012.43 1012.19 1011.83 1011.36 1010.88 1010.43 1010.05 1009.19 1008.30 1007.69 1007.08 1006.61 1006.16 1005.97 1005.60 1005.22 1004.97 1004.68 1004.50 1004.18 1003.82 1003.80 1003.64 1003.45 1003.24 1002.97 1002.74 1002.59 1002.56 1002.62 1002.72 1002.74 1002.79 1002.88 1002.98 1003.15 1003.35
1013.79 1013.68 1013.66 1013.49 1013.28 1012.95 1012.65 1012.33 1011.96 1011.55 1011.05 1010.50 1010.06 1009.26 1007.61 1006.71 1006.01 1006.21 1005.88 1005.38 1004.91 1004.54 1004.27 1003.96 1003.66 1003.34 1003.06 1002.77 1002.60 1002.38 1002.17 1002.00 1001.75 1001.49 1001.25 1001.18 1001.12 1001.14 1001.16 1001.24 1001.35 1001.44 1001.56
1014.42 1014.28 1014.17 1013.99 1013.73 1013.40 1013.11 1012.78 1012.34 1011.94 1011.36 1010.74 1010.31 1009.99 1008.34 1007.09 1006.56 1006.05 1005.23 1004.71 1004.23 1003.97 1003.68 1003.30 1003.01 1002.67 1002.40 1002.08 1001.88 1001.60 1001.43 1001.08 1000.67 1000.27 1000.04 999.86 999.67 999.56 999.58 999.68 999.68 999.78 999.90
1014.85 1014.77 1014.62 1014.39 1014.07 1013.71 1013.33 1012.96 1012.56 1012.28 1011.83 1011.16 1010.62 1009.94 1009.91 1009.11 1007.55 1004.87 1004.79 1004.64 1004.21 1003.49 1003.10 1002.61 1002.34 1001.94 1001.62 1001.23 1000.82 1000.57 1000.23 999.98 999.72 999.42 999.26 998.80 998.38 998.14 997.89 997.91 998.05 998.25 998.43
1015.22 1015.17 1014.90 1014.58 1014.25 1013.94 1013.62 1013.24 1012.75 1012.39 1012.07 1011.69 1011.10 1010.47 1009.90 1009.14 1008.43 1007.33 1004.33 1004.33 1004.42 1003.80 1003.12 1002.43 1001.60 1000.99 1000.62 1000.33 999.99 999.57 999.32 999.07 998.82 998.53 998.13 997.68 997.20 996.81 996.52 996.36 996.44 996.58 996.81
1015.51 1015.31 1015.00 1014.66 1014.34 1014.05 1013.71 1013.32 1012.98 1012.57 1012.18 1011.70 1011.19 1010.67 1010.12 1009.46 1008.72 1008.12 1006.88 1005.01 1004.17 1003.34 1002.65 1001.90 1001.49 1000.74 1000.14 999.52 999.27 998.87 998.50 998.21 997.91 997.65 997.06 996.63 996.21 995.24 995.16 995.07 995.11 995.29 995.35
1015.67 1015.51 1015.25 1014.87 1014.57 1014.33 1013.98 1013.59 1013.13 1012.62 1012.18 1011.74 1011.23 1010.67 1010.23 1009.73 1009.10 1008.25 1007.28 1005.67 1004.35 1003.08 1002.20 1001.62 1001.16 1000.60 1000.07 999.47 999.08 998.86 998.46 997.94 997.39 996.95 996.48 996.01 995.48 995.08 994.85 994.64 994.28 994.13 994.11
1016.32 1016.08 1015.70 1015.27 1014.84 1014.44 1014.03 1013.58 1013.09 1012.62 1012.20 1011.76 1011.23 1010.89 1010.26 1009.71 1008.96 1008.18 1007.35 1006.35 1004.47 1003.26 1002.31 1001.22 1001.14 1000.80 1000.15 999.92 999.61 998.97 998.28 997.47 996.91 996.29 995.69 995.15 994.81 994.54 994.16 993.61 993.47 993.37 993.13
1016.64 1016.28 1015.90 1015.46 1015.05 1014.67 1014.24 1013.77 1013.22 1012.54 1012.08 1011.51 1011.10 1010.74 1010.18 1009.44 1008.75 1008.03 1007.25 1006.42 1005.51 1003.92 1002.24 1000.50 1000.81 1000.53 1000.12 999.97 999.51 999.15 998.30 997.21 996.23 995.65 995.15 994.60 994.16 993.46 993.06 992.96 992.60 992.27 992.16
1016.95 1016.65 1016.21 1015.82 1015.33 1014.85 1014.33 1013.79 1013.18 1012.53 1011.97 1011.53 1010.89 1010.46 1009.87 1009.16 1008.43 1007.67 1007.01 1006.36 1005.63 1005.18 1003.79 1001.69 1000.31 1000.05 1000.07 999.75 999.31 998.50 997.68 997.15 995.84 994.95 994.29 993.61 993.13 992.72 992.15 991.78 991.38 991.19 990.96
1017.28 1016.90 1016.43 1015.89 1015.34 1014.73 1014.17 1013.61 1012.99 1012.27 1011.87 1011.23 1010.74 1010.10 1009.55 1008.86 1008.30 1007.53 1006.74 1006.12 1005.50 1005.01 1003.73 1001.14 1000.78 999.86 999.55 999.07 998.34 998.00 997.34 996.23 995.00 994.09 993.66 992.96 992.38 991.85 991.32 990.82 990.28 989.90 989.66
1017.32 1016.93 1016.39 1015.84 1015.27 1014.72 1014.14 1013.51 1012.83 1012.34 1011.71 1011.01 1010.41 1009.78 1009.24 1008.63 1007.91 1007.19 1006.44 1005.65 1005.17 1004.58 1003.49 1001.55 1000.52 999.68 999.36 998.75 997.91 997.25 996.63 995.47 994.63 993.72 993.03 992.31 991.71 991.14 990.31 989.88 989.31 988.80 988.60
1017.11 1016.70 1016.29 1015.76 1015.18 1014.57 1013.97 1013.37 1012.77 1012.09 1011.47 1010.79 1010.07 1009.45 1008.77 1008.24 1007.44 1006.87 1006.24 1005.32 1004.54 1003.85 1003.06 1001.84 1000.30 999.66 998.73 998.10 997.21 996.65 995.80 994.94 994.15 993.23 992.29 991.63 990.74 990.29 989.52 989.03 988.49 987.97 987.71
1017.08 1016.62 1016.17 1015.65 1015.09 1014.53 1013.91 1013.14 1012.41 1011.73 1011.07 1010.34 1009.73 1009.21 1008.55 1007.96 1007.24 1006.44 1005.53 1004.67 1003.96 1003.17 1002.17 1001.11 1000.01 998.97 998.08 997.29 996.82 995.87 994.52 994.18 992.96 992.29 991.50 990.92 990.17 989.40 988.52 987.98 987.19 986.84 987.02
1016.99 1016.57 1016.01 1015.42 1014.91 1014.38 1013.51 1012.88 1012.09 1011.25 1010.45 1009.74 1009.25 1008.72 1008.13 1007.58 1006.94 1006.09 1005.08 1004.22 1003.47 1002.50 1001.56 1000.52 999.38 998.43 997.42 996.61 995.84 995.06 994.24 993.16 992.02 991.60 990.59 989.90 988.96 988.21 987.69 987.30 986.84 986.40 985.89
1016.71 1016.21 1015.64 1015.21 1014.67 1014.05 1013.43 1012.61 1011.80 1010.83 1010.11 1009.47 1008.76 1008.11 1007.48 1006.87 1006.11 1005.35 1004.71 1003.77 1002.92 1002.14 1001.24 1000.37 999.19 998.07 997.00 996.26 995.13 994.28 993.38 992.48 991.31 990.68 989.49 988.93 989.06 988.02 986.93 986.21 985.61 985.41 985.15
1016.34 1015.90 1015.51 1014.97 1014.35 1013.74 1012.99 1012.21 1011.46 1010.64 1009.83 1009.16 1008.43 1007.59 1006.70 1006.18 1005.61 1004.79 1003.80 1002.87 1002.32 1001.51 1000.73 999.83 998.69 997.76 996.62 995.64 994.90 993.60 992.53 991.72 990.98 989.87 989.33 988.48 988.19 987.03 986.28 985.42 984.67 984.22 984.28
1016.19 1015.73 1015.22 1014.70 1013.96 1013.31 1012.79 1011.96 1011.15 1010.20 1009.43 1008.61 1007.97 1007.17 1006.29 1005.59 1004.88 1003.87 1002.71 1002.01 1001.15 1000.32 999.50 998.78 998.09 997.08 996.00 994.84 993.85 992.88 991.92 991.07 990.14 988.95 988.84 987.77 987.02 986.20 985.35 984.32 983.73 983.49 983.27
1015.83 1015.29 1014.97 1014.31 1013.68 1013.10 1012.45 1011.75 1010.69 1009.62 1008.64 1007.90 1007.28 1006.62 1006.04 1004.86 1004.05 1003.19 1002.36 1001.28 1000.28 999.11 998.60 997.95 996.90 995.77 994.93 993.82 992.98 992.13 991.12 990.51 989.08 987.84 987.99 987.55 986.28 985.54 984.55 983.70 983.37 983.04 982.63
1015.62 1015.04 1014.44 1014.18 1013.57 1012.66 1012.08 1011.26 1010.25 1009.25 1008.16 1007.35 1006.73 1005.94 1005.20 1004.32 1003.31 1002.76 1001.82 1000.98 999.63 998.54 997.57 996.26 995.52 994.88 994.16 993.18 992.22 991.48 990.69 989.84 988.88 987.15 987.26 987.00 986.10 986.25 984.58 983.41 983.43 983.12 982.51
Thickness
5699 5696 5694 5691 5689 5686 5684 5683 5681 5680 5679 5678 5677 5676 5676 5675 5674 5673 5674 5672 5670 5669 5668 5667 5665 5664 5663 5662 5661 5659 5657 5654 5651 5648 5644 5641 5639 5636 5634 5632 5630 5627 5625
5694 5691 5688 5685 5682 5679 5678 5677 5676 5676 5675 5674 5673 5672 5672 5672 5672 5671 5670 5671 5668 5666 5664 5663 5661 5659 5658 5657 5656 5655 5653 5651 5648 5646 5644 5642 5638 5634 5631 5627 5626 5623 5621
5687 5683 5682 5679 5677 5674 5672 5670 5670 5669 5671 5671 5670 5670 5670 5670 5670 5669 5668 5668 5667 5664 5661 5660 5658 5657 5655 5653 5652 5651 5650 5648 5647 5644 5641 5639 5636 5632 5629 5627 5624 5621 5619
5680 5678 5676 5675 5673 5669 5667 5667 5667 5668 5668 5667 5668 5669 5668 5667 5668 5668 5667 5666 5666 5665 5664 5660 5657 5657 5655 5653 5650 5647 5646 5645 5643 5642 5640 5637 5633 5630 5627 5625 5623 5620 5618
5676 5673 5671 5670 5668 5665 5664 5662 5662 5661 5663 5663 5662 5664 5664 5664 5665 5663 5663 5661 5660 5658 5658 5657 5653 5650 5647 5645 5644 5643 5642 5641 5638 5637 5636 5635 5633 5630 5627 5625 5622 5620 5617
5668 5666 5664 5662 5661 5660 5659 5656 5655 5655 5654 5655 5655 5656 5657 5659 5659 5658 5656 5654 5653 5651 5649 5646 5644 5643 5639 5635 5634 5634 5634 5634 5633 5631 5629 5628 5626 5625 5624 5622 5620 5618 5617
5659 5657 5655 5654 5652 5650 5649 5647 5646 5646 5646 5644 5641 5646 5651 5652 5652 5652 5653 5649 5647 5644 5641 5639 5636 5634 5634 5630 5627 5625 5624 5625 5625 5626 5625 5623 5621 5620 5619 5618 5618 5616 5614
5647 5645 5643 5641 5639 5638 5636 5635 5633 5633 5632 5630 5626 5628 5638 5648 5650 5643 5641 5640 5638 5636 5633 5630 5626 5624 5621 5620 5618 5615 5614 5614 5614 5615 5617 5618 5618 5617 5616 5616 5615 5615 5614
5635 5633 5630 5628 5627 5625 5624 5621 5620 5617 5616 5616 5611 5604 5613 5621 5620 5627 5630 5629 5628 5625 5621 5618 5615 5611 5607 5604 5603 5603 5601 5600 5602 5605 5606 5609 5612 5613 5613 5611 5611 5612 5612
5624 5621 5618 5615 5614 5613 5612 5609 5607 5602 5599 5597 5596 5594 5585 5583 5588 5613 5613 5606 5603 5604 5604 5603 5599 5596 5592 5591 5590 5590 5589 5587 5587 5589 5589 5595 5601 5605 5609 5609 5608 5607 5606
5614 5610 5608 5606 5604 5601 5597 5593 5590 5585 5580 5575 5572 5569 5566 5565 5561 5562 5592 5588 5580 5578 5580 5579 5580 5579 5576 5573 5574 5576 5572 5572 5573 5574 5576 5581 5589 5594 5598 5600 5601 5602 5602
5602 5598 5596 5593 5589 5585 5581 5577 5571 5566 5561 5557 5552 5547 5542 5539 5535 5529 5530 5553 5554 5562 5559 5559 5552 5552 5550 5550 5549 5551 5551 5553 5554 5556 5564 5569 5572 5581 5585 5587 5588 5590 5593
5591 5586 5582 5578 5574 5568 5564 5559 5554 5550 5544 5538 5532 5528 5521 5513 5507 5502 5497 5508 5514 5531 5536 5537 5524 5521 5519 5519 5518 5517 5518 5523 5529 5533 5539 5548 5554 5561 5562 5567 5574 5578 5583
5574 5570 5566 5561 5557 5551 5547 5542 5537 5532 5525 5518 5511 5502 5495 5486 5479 5473 5466 5459 5470 5483 5497 5507 5493 5484 5483 5483 5484 5484 5492 5499 5505 5512 5519 5525 5532 5538 5544 5551 5559 5562 5570
5557 5552 5547 5542 5536 5531 5525 5520 5515 5511 5504 5496 5487 5476 5467 5461 5453 5445 5438 5433 5422 5425 5453 5485 5461 5459 5457 5457 5459 5458 5465 5477 5486 5493 5498 5503 5508 5517 5526 5533 5540 5550 5557
5538 5532 5527 5521 5515 5509 5505 5500 5495 5489 5482 5472 5464 5455 5443 5435 5429 5422 5415 5410 5406 5390 5390 5439 5450 5441 5437 5440 5440 5443 5449 5454 5465 5473 5479 5486 5491 5496 5505 5514 5525 5533 5541
5520 5514 5507 5502 5497 5492 5487 5481 5474 5468 5459 5452 5441 5432 5420 5411 5404 5400 5397 5393 5389 5379 5372 5415 5412 5422 5421 5421 5428 5427 5431 5441 5452 5458 5462 5467 5471 5477 5488 5498 5509 5519 5529
5503 5496 5490 5485 5478 5471 5465 5459 5453 5445 5437 5428 5417 5407 5397 5389 5384 5380 5377 5374 5367 5364 5359 5368 5387 5397 5394 5399 5406 5412 5415 5425 5432 5441 5445 5451 5457 5462 5473 5480 5491 5504 5513
5488 5481 5473 5466 5459 5452 5445 5438 5430 5422 5411 5400 5391 5382 5375 5367 5364 5357 5352 5349 5347 5344 5342 5338 5352 5367 5372 5376 5382 5388 5396 5404 5413 5422 5429 5435 5445 5449 5458 5465 5474 5486 5497
5472 5464 5455 5447 5438 5429 5420 5414 5407 5398 5389 5380 5371 5361 5352 5342 5334 5330 5327 5325 5321 5317 5319 5320 5324 5334 5344 5355 5353 5361 5376 5380 5394 5400 5410 5418 5427 5435 5445 5453 5466 5477 5480
5454 5445 5437 5428 5416 5406 5399 5391 5385 5377 5371 5364 5353 5341 5330 5319 5310 5304 5302 5301 5296 5295 5294 5293 5298 5302 5313 5320 5328 5335 5340 5356 5371 5374 5388 5399 5410 5421 5430 5438 5448 5459 5470
5439 5429 5419 5409 5397 5386 5377 5370 5362 5359 5353 5341 5332 5324 5313 5303 5296 5292 5286 5283 5281 5273 5271 5265 5270 5273 5283 5288 5300 5309 5320 5329 5342 5357 5364 5378 5380 5397 5415 5428 5441 5447 5455
5424 5412 5401 5390 5379 5368 5361 5354 5347 5341 5333 5321 5309 5304 5301 5291 5283 5280 5280 5278 5273 5266 5257 5251 5251 5254 5258 5267 5273 5286 5298 5310 5319 5337 5342 5353 5363 5381 5399 5415 5429 5438 5445
5406 5395 5383 5369 5363 5353 5343 5336 5329 5324 5316 5305 5293 5287 5283 5280 5274 5270 5272 5269 5269 5263 5258 5254 5246 5247 5251 5259 5265 5275 5287 5298 5309 5324 5325 5339 5355 5369 5386 5406 5420 5429 5439
5390 5377 5363 5353 5345 5337 5327 5317 5312 5309 5302 5293 5284 5275 5268 5270 5266 5261 5257 5259 5262 5262 5257 5250 5248 5249 5249 5258 5261 5269 5281 5287 5304 5319 5318 5324 5345 5359 5378 5396 5407 5417 5428
5370 5360 5350 5334 5325 5322 5313 5303 5296 5289 5287 5283 5276 5270 5264 5260 5257 5251 5249 5247 5252 5255 5254 5258 5253 5249 5248 5254 5262 5268 5274 5283 5295 5315 5314 5320 5336 5340 5366 5385 5391 5400 5414